Home > Weather > Bourges > Past weeks

Flag for France Weather for the Past 2 Weeks in Bourges, France

Now
50 °F

Overcast.


Feels Like: 43 °F
Forecast: 40 / 46 °F
Wind: 23 mph from West

Location: Bourges

Current Time: Feb 13, 2016 at 4:24:34 PM

Latest Report: Feb 13, 2016 at 4:00 PM


Visibility: 11 mi

Pressure: 29.12 "Hg

Humidity: 78%

Dew point: 43 °F

Location of BourgesLocation

Historic Weather in Bourges — Graph

°F

Bourges Temperature Yesterday

Maximum temperature yesterday: 48 °F (at 5:00 PM)
Minimum temperature yesterday: 33 °F (at 2:00 AM)
Average temperature yesterday: 42 °F

High & Low Weather Summary for the Past Weeks

 TemperatureHumidityPressure
High61 °F (Feb 6, 3:00 PM)97% (Jan 31, 5:00 AM)30.59 "Hg (Jan 31, 5:00 AM)
Low31 °F (Feb 11, 4:00 AM)45% (Feb 6, 3:00 PM)29.12 "Hg (Feb 13, 3:00 PM)
Average45 °F83%29.98 "Hg
* Reported Jan 29 3:00 PM — Feb 13 3:00 PM, Bourges, Weather by CustomWeather, © 2016

Note: Actual official high and low records may vary slightly from our data, if they occured in-between our weather recording intervals... More about our weather records

Advertising

Bourges Weather History for the Previous 24 Hours

 ConditionsComfort  
Time TempWeatherWind HumidityBarometerVisibility
3:00 PM
Sat, Feb 13
49 °FRain showers. Overcast.18 mph82%29.12 "Hg4 mi
1:00 PM46 °FRain showers. Overcast.22 mph82%29.15 "Hg4 mi
12:00 PM45 °FOvercast.14 mph82%29.18 "Hg12 mi
11:00 AM51 °FOvercast.17 mph81%29.15 "Hg12 mi
10:00 AM46 °FLight rain. Low clouds.13 mph94%29.18 "Hg12 mi
9:00 AM43 °FRain. Low clouds.13 mph96%29.21 "Hg4 mi
8:00 AM42 °FRain. Overcast.10 mph94%29.23 "Hg3 mi
7:00 AM42 °FRain. Overcast.6 mph92%29.29 "Hg2 mi
6:00 AM43 °FOvercast.7 mph91%29.32 "Hg8 mi
5:00 AM42 °FOvercast.9 mph92%29.35 "Hg7 mi
9:00 PM
Fri, Feb 12
45 °FLight rain. Overcast.8 mph91%29.38 "Hg9 mi
8:00 PM46 °FOvercast.12 mph86%29.35 "Hg12 mi
7:00 PM45 °FRain. Overcast.9 mph87%29.35 "Hg11 mi
6:00 PM46 °FOvercast.12 mph85%29.32 "Hg12 mi
5:00 PM48 °FOvercast.10 mph78%29.29 "Hg12 mi
4:00 PM47 °FOvercast.10 mph81%29.26 "Hg12 mi
Weather by CustomWeather, © 2016

See weather overviewHow to use our weather pages